Flag for Bosnia-Herzegovina Weather past 2 weeks in Mostar, Bosnia-Herzegovina

Now
81 °F

Passing clouds.


Feels Like: 81 °F
Forecast: 60 / 87 °F
Wind: 5 mph from Northeast

Location: Mostar

Current Time: Jul 23, 2014 at 12:13:04 PM

Latest Report: Jul 23, 2014 at 11:30 AM


Visibility: N/A

Pressure: 29.74 "Hg

Humidity: 45%

Dew point: 57 °F

Location of MostarLocation

Historic Weather in Mostar — Graph

°F

Mostar temperature yesterday

Maximum temperature yesterday: 82 °F (at 12:30 PM)
Minimum temperature yesterday: 64 °F (at 4:30 AM)
Average temperature yesterday: 74 °F

Past Weeks' High & Low Weather Summary

 TemperatureHumidityPressure
High93 °F (Jul 19, 4:00 PM)100% (Jul 15, 7:00 AM)29.98 "Hg (Jul 15, 7:00 AM)
Low59 °F (Jul 11, 3:00 AM)31% (Jul 18, 2:00 PM)29.65 "Hg (Jul 10, 5:00 PM)
Average75 °F65%29.86 "Hg
* Reported Jul 8 11:00 AM — Jul 23 11:00 AM, Mostar, Weather by CustomWeather, © 2014

Note: Actual official high and low records may vary slightly from our data, if they occured in-between our weather recording intervals... More about our weather records

Advertising

Mostar weather history for previous 24 hours

 ConditionsComfort  
Time TempWeatherWind HumidityBarometerVisibility
11:00 AM
Jul 23
79 °FPassing clouds.5 mph58%29.74 "HgN/A
8:00 AM70 °FPassing clouds.2 mph78%29.74 "HgN/A
7:00 AM66 °FPassing clouds.1 mph88%29.74 "HgN/A
6:00 AM63 °FPassing clouds.2 mph94%29.74 "HgN/A
5:00 AM64 °FPassing clouds.3 mph88%29.74 "HgN/A
4:00 AM64 °FPassing clouds.1 mph94%29.74 "HgN/A
3:00 AM66 °FPassing clouds.2 mph88%29.74 "HgN/A
2:00 AM68 °FPassing clouds.2 mph83%29.74 "HgN/A
7:00 PM
Jul 22
81 °FPassing clouds.7 mph51%29.68 "HgN/A
6:00 PM81 °FPassing clouds.5 mph48%29.68 "HgN/A
5:00 PM79 °FPassing clouds.3 mph58%29.71 "HgN/A
4:00 PM77 °FLight rain. Scattered clouds.10 mph65%29.71 "HgN/A
3:30 PM79 °FThundershowers. Scattered clouds.10 mph58%29.71 "HgN/A
3:00 PM81 °FThunderstorms. Scattered clouds.10 mph54%29.71 "HgN/A
2:30 PM82 °FThundershowers. Scattered clouds.9 mph51%29.74 "HgN/A
2:00 PM81 °FThundershowers. Partly sunny.9 mph58%29.74 "HgN/A
1:30 PM77 °FThunderstorms. Partly sunny.7 mph65%29.74 "HgN/A
1:00 PM81 °FScattered clouds.5 mph48%29.74 "HgN/A
12:30 PM82 °FScattered clouds.6 mph48%29.74 "HgN/A
12:00 PM81 °FScattered clouds.3 mph51%29.74 "HgN/A
Weather by CustomWeather, © 2014

See weather overviewHow to use our weather pages